Torna al catalogo

DMSP 5D-2 F14

USA 131

AttivoMeteoSSO
NORAD 24753·PAYLOAD·🇺🇸 United States

Lanciato Apr 4, 1997 da Vandenberg Space Force Base

Loading…

Prossimi Passaggi (prossime 24 ore)

TLE

AggiornatoSource: Space-Track

Epoca: Sep 14, 2026, 14:06 UTC

1 24753U 97012A   26257.58780992  .00000095  00000-0  69089-4 0  9990
2 24753  98.7493 304.7362 0008598 187.9875 172.1164 14.16795023520954

Traccia DMSP 5D-2 F14 in tempo reale con AllMySat

Download on the App Store